Time,TemperatureF,DewpointF,PressureIn,WindDirection,WindDirectionDegrees,WindSpeedMPH,WindSpeedGustMPH,Humidity,HourlyPrecipIn,Conditions,Clouds,dailyrainin,SoftwareType,DateUTC
2013-06-14 00:02:00,75.0,68.0,29.98,ESE,110,8.0,-999.0,78,-99.99,,,-99.99,,2013-06-14 05:02:00,
2013-06-14 00:11:00,75.0,68.0,29.99,ESE,110,8.0,-999.0,78,-99.99,,,-99.99,,2013-06-14 05:11:00,
2013-06-14 00:22:00,75.0,68.0,29.99,ESE,120,8.0,-999.0,78,-99.99,,,-99.99,,2013-06-14 05:22:00,
2013-06-14 00:33:00,75.0,68.0,29.99,ESE,120,7.0,-999.0,78,-99.99,,,-99.99,,2013-06-14 05:33:00,
2013-06-14 00:43:00,75.0,68.0,29.99,ESE,120,8.0,-999.0,78,-99.99,,,-99.99,,2013-06-14 05:43:00,
2013-06-14 00:52:00,73.0,68.0,29.99,ESE,120,8.0,-999.0,83,-99.99,,,-99.99,,2013-06-14 05:52:00,
2013-06-14 01:02:00,73.0,68.0,29.99,ESE,120,7.0,-999.0,83,-99.99,,,-99.99,,2013-06-14 06:02:00,
2013-06-14 01:12:00,73.0,68.0,29.99,ESE,120,8.0,-999.0,83,-99.99,,,-99.99,,2013-06-14 06:12:00,
2013-06-14 01:22:00,73.0,68.0,29.99,ESE,120,6.0,-999.0,83,-99.99,,,-99.99,,2013-06-14 06:22:00,
2013-06-14 01:33:00,73.0,68.0,29.99,ESE,120,6.0,-999.0,83,-99.99,,,-99.99,,2013-06-14 06:33:00,
2013-06-14 01:43:00,73.0,68.0,29.99,ESE,120,6.0,-999.0,83,-99.99,,,-99.99,,2013-06-14 06:43:00,
2013-06-14 01:52:00,73.0,68.0,29.99,SE,130,7.0,-999.0,83,-99.99,,,-99.99,,2013-06-14 06:52:00,
2013-06-14 02:02:00,73.0,68.0,29.99,SE,130,6.0,-999.0,83,-99.99,,,-99.99,,2013-06-14 07:02:00,
2013-06-14 02:12:00,73.0,68.0,29.98,ESE,120,6.0,-999.0,83,-99.99,,,-99.99,,2013-06-14 07:12:00,
2013-06-14 02:22:00,73.0,68.0,29.98,SE,130,7.0,-999.0,83,-99.99,,,-99.99,,2013-06-14 07:22:00,
2013-06-14 02:33:00,73.0,68.0,29.98,SE,130,8.0,-999.0,83,-99.99,,,-99.99,,2013-06-14 07:33:00,
2013-06-14 02:43:00,73.0,68.0,29.98,SE,130,7.0,-999.0,83,-99.99,,,-99.99,,2013-06-14 07:43:00,
2013-06-14 02:53:00,73.0,68.0,29.97,SE,130,8.0,-999.0,83,-99.99,,,-99.99,,2013-06-14 07:53:00,
2013-06-14 03:02:00,73.0,68.0,29.97,SE,140,8.0,-999.0,83,-99.99,,,-99.99,,2013-06-14 08:02:00,
2013-06-14 03:12:00,73.0,68.0,29.97,SE,130,8.0,-999.0,83,-99.99,,,-99.99,,2013-06-14 08:12:00,
2013-06-14 03:22:00,73.0,68.0,29.97,SE,140,7.0,-999.0,83,-99.99,,,-99.99,,2013-06-14 08:22:00,
2013-06-14 03:33:00,73.0,68.0,29.96,SE,140,9.0,-999.0,83,-99.99,,,-99.99,,2013-06-14 08:33:00,
2013-06-14 03:43:00,72.0,68.0,29.96,SE,140,9.0,-999.0,88,-99.99,,,-99.99,,2013-06-14 08:43:00,
2013-06-14 03:53:00,72.0,68.0,29.96,SE,140,8.0,-999.0,88,-99.99,,,-99.99,,2013-06-14 08:53:00,
2013-06-14 04:02:00,72.0,68.0,29.96,SE,140,9.0,-999.0,88,-99.99,,,-99.99,,2013-06-14 09:02:00,
2013-06-14 04:12:00,72.0,68.0,29.96,SE,140,9.0,-999.0,88,-99.99,,,-99.99,,2013-06-14 09:12:00,
2013-06-14 04:22:00,73.0,68.0,29.96,SE,140,9.0,-999.0,83,-99.99,,,-99.99,,2013-06-14 09:22:00,
2013-06-14 04:33:00,72.0,68.0,29.96,SE,140,9.0,-999.0,88,-99.99,,,-99.99,,2013-06-14 09:33:00,
2013-06-14 04:43:00,72.0,68.0,29.96,SE,140,8.0,-999.0,88,-99.99,,,-99.99,,2013-06-14 09:43:00,
2013-06-14 04:52:00,72.0,68.0,29.95,SE,140,7.0,-999.0,88,-99.99,,,-99.99,,2013-06-14 09:52:00,
2013-06-14 05:01:00,72.0,68.0,29.95,SE,140,8.0,-999.0,88,-99.99,,,-99.99,,2013-06-14 10:01:00,
2013-06-14 05:11:00,72.0,68.0,29.95,SE,140,8.0,-999.0,88,-99.99,,,-99.99,,2013-06-14 10:11:00,
2013-06-14 05:22:00,72.0,68.0,29.95,SSE,150,9.0,-999.0,88,-99.99,,,-99.99,,2013-06-14 10:22:00,
2013-06-14 05:34:00,72.0,68.0,29.95,SSE,150,9.0,-999.0,88,-99.99,,,-99.99,,2013-06-14 10:34:00,
2013-06-14 05:43:00,72.0,68.0,29.95,SSE,150,8.0,-999.0,88,-99.99,,,-99.99,,2013-06-14 10:43:00,
2013-06-14 05:52:00,72.0,68.0,29.95,SSE,150,9.0,-999.0,88,-99.99,,,-99.99,,2013-06-14 10:52:00,
2013-06-14 06:02:00,72.0,68.0,29.95,SSE,150,7.0,-999.0,88,-99.99,,,-99.99,,2013-06-14 11:02:00,
2013-06-14 06:11:00,72.0,68.0,29.95,SE,140,5.0,-999.0,88,-99.99,,,-99.99,,2013-06-14 11:11:00,
2013-06-14 06:22:00,72.0,68.0,29.95,SE,130,7.0,-999.0,88,-99.99,,,-99.99,,2013-06-14 11:22:00,
2013-06-14 06:32:00,72.0,68.0,29.95,SE,130,6.0,-999.0,88,-99.99,,,-99.99,,2013-06-14 11:32:00,
2013-06-14 06:43:00,72.0,68.0,29.96,SE,140,7.0,-999.0,88,-99.99,,,-99.99,,2013-06-14 11:43:00,
2013-06-14 06:52:00,72.0,68.0,29.96,SE,140,6.0,-999.0,88,-99.99,,,-99.99,,2013-06-14 11:52:00,
2013-06-14 07:01:00,72.0,68.0,29.96,SE,130,6.0,-999.0,88,-99.99,,,-99.99,,2013-06-14 12:01:00,
2013-06-14 07:11:00,72.0,68.0,29.96,SE,130,5.0,-999.0,88,-99.99,,,-99.99,,2013-06-14 12:11:00,
2013-06-14 07:22:00,72.0,68.0,29.96,SE,140,7.0,-999.0,88,-99.99,,,-99.99,,2013-06-14 12:22:00,
2013-06-14 07:32:00,72.0,68.0,29.96,SE,140,8.0,-999.0,88,-99.99,,,-99.99,,2013-06-14 12:32:00,
2013-06-14 07:43:00,73.0,68.0,29.96,SE,140,8.0,-999.0,83,-99.99,,,-99.99,,2013-06-14 12:43:00,
2013-06-14 07:52:00,73.0,70.0,29.96,SE,140,9.0,-999.0,88,-99.99,,,-99.99,,2013-06-14 12:52:00,
2013-06-14 08:02:00,73.0,70.0,29.96,SE,140,8.0,-999.0,88,-99.99,,,-99.99,,2013-06-14 13:02:00,
2013-06-14 08:11:00,75.0,70.0,29.96,SE,140,10.0,-999.0,83,-99.99,,,-99.99,,2013-06-14 13:11:00,
2013-06-14 08:22:00,75.0,70.0,29.96,SSE,150,8.0,-999.0,83,-99.99,,,-99.99,,2013-06-14 13:22:00,
2013-06-14 08:33:00,75.0,70.0,29.96,SSE,150,9.0,-999.0,83,-99.99,,,-99.99,,2013-06-14 13:33:00,
2013-06-14 08:43:00,77.0,70.0,29.97,SSE,150,8.0,-999.0,78,-99.99,,,-99.99,,2013-06-14 13:43:00,
2013-06-14 08:52:00,77.0,72.0,29.97,SSE,150,9.0,-999.0,83,-99.99,,,-99.99,,2013-06-14 13:52:00,
2013-06-14 09:02:00,79.0,72.0,29.97,SSE,150,9.0,-999.0,78,-99.99,,,-99.99,,2013-06-14 14:02:00,
2013-06-14 09:11:00,79.0,72.0,29.97,SSE,150,8.0,-999.0,78,-99.99,,,-99.99,,2013-06-14 14:11:00,
2013-06-14 09:22:00,81.0,72.0,29.97,SSE,160,10.0,-999.0,74,-99.99,,,-99.99,,2013-06-14 14:22:00,
2013-06-14 09:34:00,81.0,72.0,29.97,South,170,10.0,16.0,74,-99.99,,,-99.99,,2013-06-14 14:34:00,
2013-06-14 09:43:00,82.0,72.0,29.97,South,180,9.0,16.0,69,-99.99,,,-99.99,,2013-06-14 14:43:00,
2013-06-14 09:52:00,82.0,72.0,29.97,South,170,12.0,-999.0,69,-99.99,,,-99.99,,2013-06-14 14:52:00,
2013-06-14 10:01:00,82.0,72.0,29.97,South,170,9.0,-999.0,69,-99.99,,,-99.99,,2013-06-14 15:01:00,
2013-06-14 10:11:00,84.0,72.0,29.96,South,190,10.0,-999.0,65,-99.99,,,-99.99,,2013-06-14 15:11:00,
2013-06-14 10:23:00,84.0,72.0,29.96,South,190,10.0,-999.0,65,-99.99,,,-99.99,,2013-06-14 15:23:00,
2013-06-14 10:33:00,86.0,72.0,29.96,South,190,9.0,-999.0,62,-99.99,,,-99.99,,2013-06-14 15:33:00,
2013-06-14 10:43:00,86.0,72.0,29.96,South,190,9.0,-999.0,62,-99.99,,,-99.99,,2013-06-14 15:43:00,
2013-06-14 10:52:00,88.0,72.0,29.95,South,180,12.0,-999.0,58,-99.99,,,-99.99,,2013-06-14 15:52:00,
2013-06-14 11:01:00,88.0,72.0,29.95,South,170,10.0,-999.0,58,-99.99,,,-99.99,,2013-06-14 16:01:00,
2013-06-14 11:11:00,90.0,70.0,29.94,South,190,12.0,-999.0,52,-99.99,,,-99.99,,2013-06-14 16:11:00,
2013-06-14 11:22:00,90.0,72.0,29.94,South,180,10.0,-999.0,55,-99.99,,,-99.99,,2013-06-14 16:22:00,
2013-06-14 11:32:00,91.0,72.0,29.94,SSW,200,12.0,17.0,52,-99.99,,,-99.99,,2013-06-14 16:32:00,
2013-06-14 11:43:00,91.0,70.0,29.94,SSW,200,12.0,17.0,49,-99.99,,,-99.99,,2013-06-14 16:43:00,
2013-06-14 11:52:00,91.0,70.0,29.94,South,180,14.0,-999.0,49,-99.99,,,-99.99,,2013-06-14 16:52:00,
2013-06-14 12:02:00,91.0,68.0,29.94,SSW,200,10.0,-999.0,46,-99.99,,,-99.99,,2013-06-14 17:02:00,
2013-06-14 12:11:00,93.0,68.0,29.94,SSW,200,12.0,-999.0,43,-99.99,,,-99.99,,2013-06-14 17:11:00,
2013-06-14 12:22:00,93.0,68.0,29.93,South,190,15.0,22.0,43,-99.99,,,-99.99,,2013-06-14 17:22:00,
2013-06-14 12:34:00,93.0,66.0,29.93,South,190,15.0,21.0,41,-99.99,,,-99.99,,2013-06-14 17:34:00,
2013-06-14 12:43:00,95.0,66.0,29.93,South,190,15.0,20.0,38,-99.99,,,-99.99,,2013-06-14 17:43:00,
2013-06-14 12:53:00,95.0,66.0,29.93,SSW,200,14.0,20.0,38,-99.99,,,-99.99,,2013-06-14 17:53:00,
2013-06-14 13:02:00,95.0,66.0,29.93,South,180,15.0,22.0,38,-99.99,,,-99.99,,2013-06-14 18:02:00,
2013-06-14 13:11:00,95.0,64.0,29.92,South,190,18.0,-999.0,36,-99.99,,,-99.99,,2013-06-14 18:11:00,
2013-06-14 13:22:00,95.0,64.0,29.92,South,190,16.0,-999.0,36,-99.99,,,-99.99,,2013-06-14 18:22:00,
2013-06-14 13:32:00,97.0,64.0,29.91,SSW,200,16.0,-999.0,34,-99.99,,,-99.99,,2013-06-14 18:32:00,
2013-06-14 13:42:00,97.0,63.0,29.91,South,190,14.0,24.0,32,-99.99,,,-99.99,,2013-06-14 18:42:00,
2013-06-14 13:52:00,97.0,63.0,29.91,SSW,200,14.0,23.0,32,-99.99,,,-99.99,,2013-06-14 18:52:00,
2013-06-14 14:01:00,97.0,64.0,29.91,South,190,18.0,24.0,34,-99.99,,,-99.99,,2013-06-14 19:01:00,
2013-06-14 14:11:00,97.0,63.0,29.90,SSW,200,14.0,24.0,32,-99.99,,,-99.99,,2013-06-14 19:11:00,
2013-06-14 14:21:00,97.0,63.0,29.90,South,190,17.0,25.0,32,-99.99,,,-99.99,,2013-06-14 19:21:00,
2013-06-14 14:32:00,97.0,63.0,29.90,South,190,14.0,21.0,32,-99.99,,,-99.99,,2013-06-14 19:32:00,
2013-06-14 14:43:00,99.0,63.0,29.90,South,190,18.0,27.0,30,-99.99,,,-99.99,,2013-06-14 19:43:00,
2013-06-14 14:53:00,97.0,63.0,29.89,South,180,17.0,-999.0,32,-99.99,,,-99.99,,2013-06-14 19:53:00,
2013-06-14 15:01:00,99.0,63.0,29.89,South,180,18.0,24.0,30,-99.99,,,-99.99,,2013-06-14 20:01:00,
2013-06-14 15:11:00,99.0,61.0,29.89,South,190,16.0,25.0,28,-99.99,,,-99.99,,2013-06-14 20:11:00,
2013-06-14 15:22:00,99.0,61.0,29.88,South,190,16.0,27.0,28,-99.99,,,-99.99,,2013-06-14 20:22:00,
2013-06-14 15:33:00,99.0,61.0,29.88,South,190,15.0,24.0,28,-99.99,,,-99.99,,2013-06-14 20:33:00,
2013-06-14 15:43:00,99.0,61.0,29.88,SSW,200,22.0,25.0,28,-99.99,,,-99.99,,2013-06-14 20:43:00,
2013-06-14 15:53:00,99.0,61.0,29.88,South,180,16.0,23.0,28,-99.99,,,-99.99,,2013-06-14 20:53:00,
2013-06-14 16:02:00,99.0,57.0,29.87,South,190,16.0,27.0,25,-99.99,,,-99.99,,2013-06-14 21:02:00,
2013-06-14 16:11:00,99.0,57.0,29.87,South,190,16.0,24.0,25,-99.99,,,-99.99,,2013-06-14 21:11:00,
2013-06-14 16:22:00,99.0,55.0,29.87,South,190,20.0,28.0,23,-99.99,,,-99.99,,2013-06-14 21:22:00,
2013-06-14 16:34:00,99.0,57.0,29.86,SSW,200,18.0,28.0,25,-99.99,,,-99.99,,2013-06-14 21:34:00,
2013-06-14 16:42:00,97.0,61.0,29.86,South,180,23.0,30.0,30,-99.99,,,-99.99,,2013-06-14 21:42:00,
2013-06-14 16:52:00,99.0,61.0,29.86,South,190,18.0,29.0,28,-99.99,,,-99.99,,2013-06-14 21:52:00,
2013-06-14 17:01:00,99.0,61.0,29.86,SSW,200,16.0,25.0,28,-99.99,,,-99.99,,2013-06-14 22:01:00,
2013-06-14 17:11:00,99.0,61.0,29.86,South,170,21.0,28.0,28,-99.99,,,-99.99,,2013-06-14 22:11:00,
2013-06-14 17:22:00,99.0,61.0,29.86,South,190,16.0,30.0,28,-99.99,,,-99.99,,2013-06-14 22:22:00,
2013-06-14 17:33:00,97.0,61.0,29.86,South,190,21.0,28.0,30,-99.99,,,-99.99,,2013-06-14 22:33:00,
2013-06-14 17:43:00,97.0,61.0,29.85,South,180,16.0,23.0,30,-99.99,,,-99.99,,2013-06-14 22:43:00,
2013-06-14 17:52:00,97.0,61.0,29.85,South,180,15.0,21.0,30,-99.99,,,-99.99,,2013-06-14 22:52:00,
2013-06-14 18:01:00,97.0,61.0,29.84,South,190,18.0,25.0,30,-99.99,,,-99.99,,2013-06-14 23:01:00,
2013-06-14 18:11:00,97.0,61.0,29.84,South,180,20.0,28.0,30,-99.99,,,-99.99,,2013-06-14 23:11:00,
2013-06-14 18:22:00,95.0,59.0,29.84,South,170,15.0,27.0,30,-99.99,,,-99.99,,2013-06-14 23:22:00,
2013-06-14 18:33:00,93.0,61.0,29.85,South,180,23.0,31.0,34,-99.99,,,-99.99,,2013-06-14 23:33:00,
2013-06-14 18:43:00,93.0,61.0,29.85,South,180,20.0,31.0,34,-99.99,,,-99.99,,2013-06-14 23:43:00,
2013-06-14 18:52:00,93.0,61.0,29.85,South,190,17.0,27.0,34,-99.99,,,-99.99,,2013-06-14 23:52:00,
2013-06-14 19:01:00,93.0,61.0,29.85,South,180,20.0,29.0,34,-99.99,,,-99.99,,2013-06-15 00:01:00,
2013-06-14 19:11:00,93.0,61.0,29.86,South,180,18.0,24.0,34,-99.99,,,-99.99,,2013-06-15 00:11:00,
2013-06-14 19:22:00,93.0,61.0,29.86,South,180,17.0,22.0,34,-99.99,,,-99.99,,2013-06-15 00:22:00,
2013-06-14 19:34:00,93.0,61.0,29.87,South,190,15.0,24.0,34,-99.99,,,-99.99,,2013-06-15 00:34:00,
2013-06-14 19:43:00,93.0,59.0,29.87,South,190,14.0,-999.0,31,-99.99,,,-99.99,,2013-06-15 00:43:00,
2013-06-14 19:52:00,91.0,61.0,29.87,South,180,14.0,-999.0,36,-99.99,,,-99.99,,2013-06-15 00:52:00,
2013-06-14 20:01:00,91.0,61.0,29.87,South,180,12.0,-999.0,36,-99.99,,,-99.99,,2013-06-15 01:01:00,
2013-06-14 20:11:00,90.0,61.0,29.88,South,180,12.0,-999.0,38,-99.99,,,-99.99,,2013-06-15 01:11:00,
2013-06-14 20:22:00,90.0,61.0,29.88,South,190,12.0,-999.0,38,-99.99,,,-99.99,,2013-06-15 01:22:00,
2013-06-14 20:33:00,90.0,59.0,29.89,South,190,13.0,-999.0,35,-99.99,,,-99.99,,2013-06-15 01:33:00,
2013-06-14 20:43:00,90.0,59.0,29.89,South,190,12.0,-999.0,35,-99.99,,,-99.99,,2013-06-15 01:43:00,
2013-06-14 20:54:00,90.0,59.0,29.89,South,190,12.0,17.0,35,-99.99,,,-99.99,,2013-06-15 01:54:00,
2013-06-14 21:02:00,88.0,59.0,29.89,South,190,12.0,-999.0,37,-99.99,,,-99.99,,2013-06-15 02:02:00,
2013-06-14 21:11:00,88.0,61.0,29.89,South,190,12.0,-999.0,40,-99.99,,,-99.99,,2013-06-15 02:11:00,
2013-06-14 21:22:00,88.0,61.0,29.89,South,190,10.0,-999.0,40,-99.99,,,-99.99,,2013-06-15 02:22:00,
2013-06-14 21:33:00,88.0,61.0,29.89,South,180,10.0,16.0,40,-99.99,,,-99.99,,2013-06-15 02:33:00,
2013-06-14 21:43:00,86.0,61.0,29.90,South,190,9.0,-999.0,42,-99.99,,,-99.99,,2013-06-15 02:43:00,
2013-06-14 21:53:00,84.0,61.0,29.91,South,190,7.0,-999.0,45,-99.99,,,-99.99,,2013-06-15 02:53:00,
2013-06-14 22:01:00,84.0,61.0,29.91,South,190,6.0,-999.0,45,-99.99,,,-99.99,,2013-06-15 03:01:00,
2013-06-14 22:11:00,82.0,61.0,29.91,South,180,7.0,-999.0,48,-99.99,,,-99.99,,2013-06-15 03:11:00,
2013-06-14 22:23:00,82.0,61.0,29.91,South,180,7.0,-999.0,48,-99.99,,,-99.99,,2013-06-15 03:23:00,
2013-06-14 22:32:00,81.0,63.0,29.91,South,170,7.0,-999.0,54,-99.99,,,-99.99,,2013-06-15 03:32:00,
2013-06-14 22:43:00,81.0,61.0,29.91,South,180,8.0,-999.0,50,-99.99,,,-99.99,,2013-06-15 03:43:00,
2013-06-14 22:52:00,81.0,63.0,29.92,South,190,7.0,-999.0,54,-99.99,,,-99.99,,2013-06-15 03:52:00,
2013-06-14 23:01:00,81.0,63.0,29.92,South,190,7.0,-999.0,54,-99.99,,,-99.99,,2013-06-15 04:01:00,
2013-06-14 23:11:00,81.0,63.0,29.92,South,190,7.0,-999.0,54,-99.99,,,-99.99,,2013-06-15 04:11:00,
2013-06-14 23:22:00,81.0,63.0,29.93,South,190,7.0,-999.0,54,-99.99,,,-99.99,,2013-06-15 04:22:00,
2013-06-14 23:34:00,81.0,63.0,29.93,South,190,6.0,-999.0,54,-99.99,,,-99.99,,2013-06-15 04:34:00,
2013-06-14 23:43:00,81.0,63.0,29.93,South,180,6.0,-999.0,54,-99.99,,,-99.99,,2013-06-15 04:43:00,
2013-06-14 23:53:00,79.0,63.0,29.93,South,180,7.0,-999.0,57,-99.99,,,-99.99,,2013-06-15 04:53:00,